Flag for Germany Weather past 2 weeks in Kerpen, North Rhine-Westphalia, Germany

Now
64 °F

Passing clouds.


Feels Like: 64 °F
Forecast: 57 / 72 °F
Wind: 2 mph from Southeast

Location: Noervenich

Current Time: Sep 17, 2014 at 11:52:21 PM

Latest Report: Sep 17, 2014 at 10:20 PM


Visibility: N/A

Pressure: 29.86 "Hg

Humidity: 83%

Dew point: 59 °F

Location of KerpenLocation

Historic Weather in Kerpen — Graph

°F

Kerpen temperature yesterday

Maximum temperature yesterday: 73 °F (at 2:20 PM)
Minimum temperature yesterday: 55 °F (at 3:20 AM)
Average temperature yesterday: 64 °F

Past Weeks' High & Low Weather Summary

 TemperatureHumidityPressure
High75 °F (Sep 5, 3:20 PM)100% (Sep 3, 1:20 AM)30.24 "Hg (Sep 3, 1:20 AM)
Low46 °F (Sep 12, 6:20 AM)50% (Sep 17, 3:20 PM)29.86 "Hg (Sep 17, 3:20 PM)
Average61 °F81%30.06 "Hg
* Reported Sep 2 10:20 PM — Sep 17 10:20 PM, Kerpen, Weather by CustomWeather, © 2014

Note: Actual official high and low records may vary slightly from our data, if they occured in-between our weather recording intervals... More about our weather records

Advertising

Kerpen weather history for previous 24 hours

 ConditionsComfort  
Time TempWeatherWind HumidityBarometerVisibility
10:20 PM
Sep 17
64 °FPassing clouds.2 mph83%29.86 "HgN/A
9:20 PM64 °FPassing clouds.1 mph83%29.86 "HgN/A
8:20 PM68 °FPassing clouds.1 mph73%29.86 "HgN/A
7:20 PM72 °FPassing clouds.3 mph65%29.86 "HgN/A
6:20 PM75 °FPassing clouds.5 mph54%29.86 "HgN/A
5:20 PM75 °FPassing clouds.3 mph50%29.86 "HgN/A
4:20 PM75 °FPassing clouds.3 mph50%29.86 "HgN/A
3:20 PM75 °FPassing clouds.2 mph50%29.86 "HgN/A
2:20 PM73 °FPassing clouds.3 mph61%29.89 "HgN/A
1:20 PM73 °FPassing clouds.6 mph61%29.89 "HgN/A
12:20 PM72 °FPassing clouds.5 mph65%29.89 "HgN/A
11:20 AM68 °FPassing clouds.5 mph73%29.92 "HgN/A
10:20 AM64 °FMild.5 mph83%29.92 "HgN/A
9:20 AM61 °FCool.2 mph88%29.92 "Hg5 mi
8:20 AM57 °FPassing clouds.1 mph94%29.92 "Hg4 mi
7:20 AM55 °FFog.3 mph94%29.92 "Hg3 mi
6:20 AM55 °FFog.3 mph94%29.92 "Hg4 mi
5:20 AM55 °FCool.2 mph94%29.92 "Hg6 mi
4:20 AM54 °FCool.1 mph100%29.95 "HgN/A
3:20 AM55 °FCool.No wind94%29.95 "HgN/A
2:20 AM55 °FCool.No wind100%29.95 "HgN/A
1:20 AM57 °FCool.2 mph94%29.95 "HgN/A
12:20 AM57 °FPassing clouds.2 mph94%29.95 "HgN/A
11:20 PM
Sep 16
61 °FPassing clouds.2 mph88%29.95 "HgN/A
Weather by CustomWeather, © 2014

See weather overviewHow to use our weather pages